Location: Isle of Man Observatory
(54.1776°N, 4.6264°W)
Time: 12:25:02
(UTC+01:00)

ISS - Visible Passes

Search period start: 24 November 2017 00:00
Search period end: 04 December 2017 00:00
Orbit: 402 x 407 km, 51.6° (Epoch: 24 November)

Date Brightness Start Highest point End Pass type
(mag) Time Alt. Az. Time Alt. Az. Time Alt. Az.
29 Nov -1.3 18:59:28 10° SSE 19:00:25 12° SSE 19:00:25 12° SSE visible
30 Nov -1.7 19:41:26 10° SSW 19:42:54 20° SSW 19:42:54 20° SSW visible
01 Dec -2.0 18:49:36 10° SSW 18:52:02 19° SSE 18:52:40 18° SE visible
01 Dec -0.7 20:24:51 10° WSW 20:25:19 13° WSW 20:25:19 13° WSW visible
02 Dec -1.4 17:58:11 10° S 17:59:52 13° SE 18:01:33 10° ESE visible
02 Dec -2.5 19:32:37 10° SW 19:35:02 33° SSW 19:35:02 33° SSW visible
03 Dec -2.5 18:40:31 10° SW 18:43:25 29° SSE 18:44:42 22° ESE visible
03 Dec -1.0 20:16:20 10° WSW 20:17:21 18° WSW 20:17:21 18° WSW visible
